Theta_e
339 341 340 337 338 339 338 338 338 337 336 336 335 335 335 335 335 336 336 336 335 334 335 335 333 333 333 333 333 333 331 330 330 331 331 330 332 334 333 332 331 329 331 332 330 333 334 333 333 331 331 330 327 330 332 328 327 329 330 327 327 329 330 331 330 330 331 330 330 330 330 329 328 328 327 327 327 328 328 328 328 328 328 327 326
336 340 340 337 337 338 338 338 337 336 336 336 335 336 336 335 336 336 337 337 336 335 335 334 334 333 333 333 333 332 331 330 329 329 331 332 333 334 332 330 330 327 328 330 330 332 332 332 333 331 331 330 329 329 328 326 326 329 329 328 329 329 331 331 330 330 331 331 330 330 330 329 328 328 328 328 328 327 327 328 328 327 327 326 326
337 337 338 339 338 337 338 339 338 336 335 335 335 335 335 335 336 337 337 336 335 335 334 333 333 334 333 332 333 332 331 330 330 329 330 332 332 332 331 328 328 328 328 329 330 332 332 331 331 329 330 330 329 328 326 326 327 328 329 330 330 330 331 329 328 329 330 330 330 330 330 329 329 329 328 327 327 326 326 328 328 327 327 327 327
339 337 338 339 338 337 338 339 339 337 335 334 335 336 336 335 336 337 337 335 335 335 333 333 333 333 333 332 333 332 330 329 329 328 328 330 331 331 330 328 329 330 329 329 329 330 330 330 330 329 329 329 329 328 326 326 327 327 329 330 331 331 331 329 327 329 329 330 330 330 329 329 329 329 328 327 326 326 327 327 328 328 327 327 328
341 338 337 340 340 339 339 339 339 339 336 335 336 337 338 337 337 338 338 335 335 334 333 333 333 332 332 333 332 331 331 329 329 329 326 329 331 331 330 329 329 328 328 329 330 329 328 329 330 329 328 327 329 329 328 327 327 328 329 329 330 332 332 330 328 327 328 330 330 329 329 329 329 329 328 327 327 327 327 327 328 327 327 327 328
340 339 338 341 342 341 340 340 340 340 338 336 337 338 339 339 339 338 338 336 335 335 334 333 333 332 332 332 331 331 330 329 329 327 325 329 332 332 330 329 328 326 327 330 330 328 328 329 330 329 328 327 328 329 329 329 329 330 329 328 329 330 330 331 330 327 327 328 328 328 328 329 329 329 329 328 327 327 327 327 327 326 327 327 328
335 337 339 342 343 343 342 341 341 341 340 339 339 340 340 339 338 338 337 335 335 334 333 333 333 332 332 331 331 331 329 327 328 326 325 330 332 331 329 326 326 324 325 329 327 326 327 329 330 330 329 328 328 328 328 329 330 331 330 329 330 329 329 331 331 329 328 328 328 328 329 329 328 329 329 329 327 327 328 327 327 327 327 327 328
331 335 339 340 342 344 343 342 342 341 341 341 341 341 340 338 336 336 336 335 334 334 333 333 333 332 332 331 330 331 328 328 330 329 328 331 331 330 327 324 325 324 324 326 325 325 326 327 329 329 329 329 329 329 328 328 329 330 329 328 330 330 329 330 330 330 329 330 329 328 329 330 329 328 328 327 328 328 328 327 327 328 327 327 326
334 335 337 337 339 342 343 343 342 342 341 340 340 340 339 336 335 335 335 335 335 334 334 333 332 332 331 330 330 331 330 329 329 328 329 330 330 330 327 326 327 326 326 327 326 326 325 324 326 327 329 329 329 330 330 328 328 329 328 327 328 328 328 329 330 330 330 330 329 327 328 329 329 329 327 327 328 328 328 327 328 328 326 325 325
335 335 335 336 337 340 342 343 341 339 338 338 337 338 336 334 333 334 334 335 336 335 333 329 330 332 330 328 329 331 331 329 326 327 329 330 329 328 327 328 328 327 327 327 327 326 323 322 324 326 328 329 329 330 330 329 328 327 326 326 327 327 326 327 328 329 329 329 328 327 328 329 328 329 328 327 327 328 328 328 328 327 326 325 324
334 332 332 335 338 339 341 341 335 332 333 333 332 334 334 332 331 332 333 334 335 334 332 328 328 330 329 329 329 329 329 326 325 328 329 329 329 327 327 328 328 327 327 326 326 326 323 322 325 325 325 327 328 329 330 331 329 327 325 325 326 326 326 325 326 327 328 328 327 327 328 328 327 328 328 327 327 327 328 328 327 326 325 324 324
333 331 331 334 339 340 340 337 332 331 333 331 329 331 331 329 327 330 330 330 332 334 333 329 327 327 328 329 328 327 326 323 326 329 329 328 328 327 327 328 328 328 327 326 325 325 322 321 322 323 323 325 327 328 329 331 331 329 326 325 325 326 326 325 325 326 327 327 327 327 327 328 327 328 328 328 328 327 327 327 327 326 325 324 324
329 331 334 337 341 340 339 336 332 331 331 331 331 332 331 328 327 328 327 326 329 332 333 330 328 328 329 329 327 326 324 323 326 328 328 329 328 328 328 328 328 327 327 327 325 321 319 320 321 323 325 326 326 327 328 330 331 330 327 327 327 327 326 325 325 325 326 327 326 327 327 327 327 327 327 328 328 327 327 327 326 326 325 324 323
329 333 337 339 340 339 337 336 334 332 331 331 332 332 332 331 330 329 328 326 326 330 332 331 329 328 329 328 325 324 323 325 328 327 327 329 329 329 328 328 329 327 328 328 323 320 322 322 323 324 324 324 325 325 326 327 329 329 330 329 327 327 326 326 327 326 326 326 326 327 328 327 328 327 326 327 327 328 328 326 325 324 323 323 322
334 337 339 338 338 339 337 336 336 335 333 331 331 331 332 332 332 331 329 327 327 329 332 332 330 328 328 327 324 322 323 326 328 327 327 329 329 329 329 328 328 327 328 327 323 324 325 321 320 320 319 320 321 322 323 323 324 327 329 328 326 326 324 326 327 325 325 327 325 326 328 327 327 328 327 327 327 328 328 326 325 324 322 322 320
334 336 337 336 337 338 336 335 336 335 333 331 331 330 331 331 331 331 330 329 327 329 332 331 330 328 327 326 323 322 324 326 328 328 326 328 329 328 328 328 327 327 327 327 325 326 325 321 321 319 316 318 318 320 323 322 321 324 327 327 326 325 323 326 327 325 325 327 325 325 327 327 327 327 327 327 327 327 327 326 324 323 322 321 320
333 334 336 336 335 337 336 334 335 335 333 332 332 332 332 331 331 331 330 329 327 328 331 331 330 328 327 325 322 322 324 325 328 327 323 326 329 328 328 327 327 327 327 326 326 326 325 324 324 320 316 318 319 322 325 323 321 324 325 325 324 324 324 326 327 326 325 326 326 325 327 327 327 327 326 327 326 326 325 324 322 322 321 321 320
334 335 336 335 335 336 336 335 336 336 334 332 332 332 332 331 331 331 330 328 327 329 331 330 329 328 326 324 322 323 323 322 327 326 320 325 329 327 327 328 327 327 327 326 325 325 326 325 324 319 314 316 320 324 325 323 323 324 324 323 322 322 324 325 326 326 326 326 327 326 327 327 327 327 327 327 326 324 323 323 321 321 320 320 320
334 336 336 335 335 335 335 335 336 335 334 333 332 332 332 331 331 332 331 329 328 330 332 331 329 329 326 322 322 324 322 322 326 325 322 326 329 327 328 328 327 327 326 325 326 325 325 325 324 320 314 315 322 325 324 323 324 324 324 324 323 323 324 323 324 326 326 326 326 326 328 327 326 327 327 326 324 323 322 321 320 320 319 318 319
334 335 334 334 334 334 335 335 335 334 333 333 333 332 332 332 332 332 333 331 329 330 333 331 330 329 325 321 322 324 324 324 324 324 325 327 328 327 327 327 327 326 324 324 326 326 325 325 324 320 316 318 323 324 323 324 324 323 323 323 323 323 324 323 324 325 326 327 326 327 328 327 326 326 326 324 323 322 321 320 320 320 319 318 318
333 333 333 333 333 333 333 334 334 333 333 333 334 334 333 332 332 332 333 332 331 330 331 331 330 328 325 322 323 323 324 325 323 322 325 327 327 327 327 326 327 326 324 324 326 326 325 325 323 320 318 321 324 323 323 323 323 322 322 322 322 322 323 324 324 324 326 327 327 328 327 326 326 325 324 324 323 321 321 320 320 319 318 318 318
331 331 332 332 332 332 333 333 332 333 333 333 333 334 333 332 331 332 332 332 331 331 330 330 329 327 324 322 323 321 321 323 323 321 324 326 327 326 325 326 327 326 325 325 326 326 325 324 323 321 319 321 324 323 323 323 322 322 322 321 321 321 321 323 324 324 324 325 326 327 327 326 325 323 323 323 322 321 320 319 319 319 319 319 318
329 329 330 331 331 331 331 332 331 331 332 332 333 333 333 332 332 332 332 332 332 331 331 331 329 326 322 323 325 323 319 322 322 320 323 326 327 326 325 325 326 326 326 326 326 325 325 324 322 320 319 321 323 323 322 322 322 321 321 320 321 321 322 323 323 323 324 324 324 325 325 324 323 322 322 321 321 320 319 319 319 319 319 319 319
327 327 328 328 329 329 329 329 330 330 330 331 332 332 331 332 332 332 332 332 332 331 331 331 328 324 323 325 327 324 320 321 322 321 324 327 327 326 325 325 325 326 325 326 325 324 324 324 322 320 318 320 323 323 321 322 321 320 320 319 319 321 321 321 322 323 323 324 323 324 324 323 323 322 321 321 321 320 320 319 319 319 320 320 320
325 326 326 326 327 327 327 328 329 329 330 331 332 332 332 331 331 332 333 332 331 330 331 330 326 323 325 327 327 327 325 325 325 324 325 326 326 325 325 324 324 324 325 325 324 322 323 323 321 319 317 319 322 322 321 321 320 319 318 317 318 320 320 320 321 321 322 323 323 322 322 323 322 322 321 321 320 320 320 319 319 319 319 320 320
322 323 324 324 324 324 325 326 327 328 328 329 330 331 331 331 331 332 332 331 331 330 330 329 325 323 326 328 327 327 328 328 327 325 324 326 326 325 325 324 322 322 324 323 322 321 322 322 320 318 317 317 320 321 321 320 319 318 317 317 317 319 320 320 320 320 321 321 322 322 322 322 321 321 321 321 320 319 320 319 319 319 319 319 320
320 320 320 321 322 322 323 324 325 326 327 327 328 328 329 330 331 331 331 331 331 330 328 327 325 326 328 329 327 327 328 327 326 325 324 326 326 324 325 324 323 322 322 321 321 321 321 320 319 318 317 316 317 319 320 319 319 318 318 318 319 319 320 320 319 319 320 320 320 320 321 321 321 321 321 320 320 319 319 319 319 319 319 319 319
318 318 318 318 319 319 321 322 323 323 324 325 326 326 327 328 329 330 330 330 330 329 327 325 324 326 328 329 327 328 328 326 325 324 324 324 323 323 324 324 323 322 320 319 320 320 320 319 318 318 318 317 317 318 318 319 318 319 319 320 319 319 319 319 319 319 320 320 320 319 320 320 320 321 321 320 320 320 320 320 319 319 319 319 319
316 316 316 317 318 318 319 320 322 322 322 323 323 324 325 326 327 329 329 329 329 328 327 327 325 324 327 328 327 327 327 326 324 324 324 323 323 323 325 324 323 321 319 319 319 319 320 320 319 318 318 318 318 318 318 318 318 319 319 319 319 319 319 319 319 319 319 320 320 319 320 320 319 319 319 319 319 319 320 321 321 320 320 320 320
313 314 314 315 317 319 318 319 321 322 323 323 323 323 324 325 325 327 327 328 329 327 327 328 327 326 327 328 327 326 326 326 325 324 324 325 324 325 325 324 322 321 320 320 319 319 320 321 320 319 319 318 318 318 318 318 318 319 319 319 319 320 319 319 319 319 319 320 321 321 320 319 317 316 315 315 315 316 318 320 321 320 320 320 320
311 312 312 313 315 318 319 319 320 321 322 323 323 322 323 323 324 325 326 327 327 327 326 328 328 327 327 327 326 326 325 325 326 325 325 325 324 324 324 322 322 321 321 321 320 319 319 320 320 320 319 318 318 318 318 318 319 319 319 319 319 319 319 319 319 320 320 319 320 320 320 317 315 315 315 315 315 316 316 317 318 318 317 318 319
309 309 310 311 313 316 318 319 320 321 322 322 322 322 322 323 324 324 325 325 326 327 326 327 327 326 326 326 325 325 324 325 325 324 324 324 324 323 323 322 321 320 319 320 320 320 320 319 319 320 320 318 317 317 317 317 318 318 319 320 320 319 319 318 319 319 319 319 320 320 320 320 318 317 317 317 317 317 317 317 317 316 316 316 317
307 307 308 309 311 314 316 317 318 319 320 321 321 321 321 322 323 323 324 324 324 325 325 325 325 325 325 324 324 323 322 322 323 323 323 324 324 323 323 322 320 318 316 315 316 317 318 319 319 319 318 316 315 315 314 315 316 317 318 318 319 321 321 319 319 319 319 319 319 319 320 322 321 320 319 319 320 319 318 317 317 317 316 317 317
305 306 307 307 309 311 314 315 317 317 318 318 319 320 320 320 321 322 323 323 323 323 323 323 323 323 323 323 323 323 322 321 322 322 322 322 323 323 321 320 319 317 314 314 313 312 313 315 316 315 314 313 313 312 311 312 313 313 313 313 314 318 320 320 320 319 320 321 321 321 322 322 322 322 321 320 321 321 321 319 318 317 317 317 317
304 305 306 306 308 311 313 314 314 315 315 316 317 318 319 319 320 321 321 321 322 322 321 322 321 321 321 322 322 322 321 321 322 321 320 320 320 320 319 319 319 317 315 314 313 312 313 313 313 312 313 313 312 312 312 312 311 311 310 310 311 313 316 319 320 320 321 322 322 322 322 322 321 322 321 319 319 320 321 321 320 320 319 319 319
302 303 304 305 307 310 312 313 314 314 314 314 315 316 317 318 318 319 320 320 320 320 320 320 320 320 320 320 320 319 319 320 320 320 320 319 318 318 317 317 318 317 316 315 314 313 312 312 311 312 313 311 311 311 311 311 311 310 310 312 314 313 316 320 321 322 322 322 322 322 322 322 321 320 319 319 318 317 318 319 319 319 319 319 319
302 303 304 305 307 310 311 312 314 314 315 314 313 313 315 317 317 318 319 319 319 319 318 319 319 319 319 319 319 319 319 320 319 319 319 319 318 318 317 317 317 317 317 316 315 313 312 311 311 312 312 310 309 309 309 310 310 309 311 315 316 316 319 322 323 323 323 322 322 322 321 321 321 319 318 318 318 317 317 317 318 318 318 317 317
301 303 304 305 307 309 310 311 312 313 313 314 313 313 314 316 316 316 317 318 318 318 317 317 317 318 319 319 319 319 319 318 318 317 317 317 317 316 316 316 315 315 316 316 316 315 314 313 313 314 313 312 311 311 309 309 309 310 313 317 317 318 319 321 321 322 322 321 321 320 319 319 320 319 319 318 318 317 316 316 316 317 317 316 316
302 302 302 302 303 305 307 308 309 310 311 312 312 313 314 314 314 315 315 316 316 315 315 315 315 316 317 318 318 318 318 318 317 317 317 316 316 316 315 315 316 316 317 317 317 317 317 317 317 317 317 315 314 314 313 312 313 315 317 318 318 318 319 319 319 320 319 319 318 318 317 318 317 317 316 316 314 314 313 313 313 314 316 316 316
302 303 302 302 302 302 302 303 303 304 306 308 310 312 313 313 313 313 313 313 313 313 314 314 315 315 316 317 317 317 317 317 317 317 317 317 317 317 317 317 317 317 317 317 317 318 317 317 318 318 318 318 317 317 316 316 317 318 318 318 317 317 317 317 317 317 317 316 315 314 315 315 315 314 314 313 312 312 311 311 311 312 313 314 314
301 302 303 303 303 302 301 301 300 300 301 302 304 306 307 307 308 308 308 308 308 310 311 312 313 314 314 315 315 316 316 315 315 315 315 316 316 316 315 315 316 316 316 316 316 316 316 317 316 317 317 317 317 317 316 317 317 317 317 317 316 314 314 315 315 314 314 314 313 313 313 313 312 312 312 311 311 312 312 312 311 311 312 312 312
302 302 303 303 303 302 301 301 301 301 300 300 300 300 300 301 301 301 301 302 303 304 305 306 308 309 310 311 312 313 313 313 312 312 312 312 312 313 313 314 314 314 314 314 314 314 314 315 314 314 314 314 314 314 314 314 314 314 314 314 313 311 311 312 312 312 312 312 311 311 311 311 311 311 311 310 310 310 311 310 310 311 311 312 313
301 301 302 303 303 303 302 301 300 301 301 301 301 301 300 300 299 298 298 298 299 299 300 301 301 302 303 304 305 306 306 307 307 307 307 308 308 308 308 308 308 308 308 308 308 308 308 308 308 307 308 308 309 310 310 310 311 311 311 310 310 308 307 307 308 308 308 307 308 308 309 309 308 308 307 307 307 307 307 306 306 306 307 307 309
299 299 300 301 301 301 301 300 299 300 301 301 301 301 301 301 300 298 297 298 298 298 298 298 299 299 299 299 299 300 300 301 301 301 301 302 302 302 302 301 302 304 305 305 304 304 305 305 304 304 303 303 302 302 303 303 304 305 304 304 304 303 302 302 301 301 301 301 301 302 303 302 302 301 301 301 301 301 301 300 301 301 301 301 302
297 298 298 298 299 299 299 299 298 299 299 300 299 299 299 299 298 297 297 297 297 297 298 298 298 298 298 298 298 298 298 298 298 298 298 298 299 300 301 301 301 302 304 304 304 303 304 304 304 305 304 303 300 299 299 299 299 299 299 299 299 299 299 299 298 298 298 298 298 298 298 298 298 298 298 298 298 298 298 298 298 298 298 298 298
297 297 297 297 297 297 297 298 297 297 298 298 298 298 298 298 297 297 297 297 297 297 297 297 297 297 297 297 297 297 297 297 297 298 298 298 299 300 301 302 303 303 303 303 303 302 303 303 303 304 304 303 302 302 302 301 299 297 297 297 297 297 297 297 297 297 297 297 297 297 297 297 297 297 297 297 297 297 297 297 297 297 298 299 299
297 296 296 297 297 297 297 296 296 296 296 296 296 296 296 297 297 297 297 297 297 297 297 296 297 297 297 297 297 297 297 297 297 298 298 297 298 299 299 300 301 302 302 303 303 303 303 303 304 304 304 304 304 304 304 302 298 296 297 297 297 297 297 297 297 298 298 297 297 297 297 297 297 297 297 298 299 299 300 301 302 302 302 303 304
298 298 297 297 296 297 296 296 296 296 296 296 296 296 296 296 296 296 296 296 296 296 296 296 297 297 297 297 297 297 297 296 296 297 297 297 297 297 297 297 297 298 298 300 301 301 301 301 302 303 303 303 304 304 302 299 297 297 297 297 297 297 297 298 298 298 298 298 298 298 298 297 298 300 300 301 302 303 304 305 306 306 306 306 306
299 299 299 298 297 297 296 296 297 298 298 298 298 298 299 299 298 298 298 297 298 298 298 298 298 298 298 298 298 297 297 297 297 296 296 296 296 296 296 296 297 296 296 297 298 298 297 297 299 300 300 301 302 301 299 297 297 297 297 298 298 298 298 298 298 298 298 298 297 297 298 299 300 302 302 303 304 304 305 305 306 306 305 305 305
299 299 299 299 299 299 298 297 297 298 299 299 299 300 300 300 300 300 300 300 301 300 300 299 299 299 300 300 300 299 299 299 299 299 297 297 296 297 297 297 297 297 297 297 297 297 297 297 298 298 297 298 298 298 297 297 298 298 298 298 298 298 298 298 298 298 298 298 298 299 301 302 302 303 303 303 303 304 304 304 304 304 304 304 304
300 299 299 299 299 299 299 299 298 298 299 299 299 299 299 299 300 300 300 300 301 301 301 300 299 299 299 300 301 301 301 301 301 301 300 299 298 297 297 298 298 298 298 298 298 298 298 298 298 298 298 298 298 298 298 298 298 298 298 298 298 298 298 298 298 298 298 298 300 301 302 303 303 303 303 303 303 303 303 303 303 303 303 304 304
Wind_Speed
12 13 14 16 16 16 16 16 17 18 18 19 21 24 25 24 22 21 19 19 21 22 22 21 21 19 19 19 16 13 14 13 14 13 11 13 13 11 11 11 11 11 10 10 10 11 10 10 9 8 8 8 9 10 9 9 9 8 7 7 8 7 5 5 6 4 4 5 6 5 5 6 7 7 6 5 5 4 3 4 4 6 9 10 10
13 14 15 17 17 17 17 16 17 19 19 20 24 25 24 24 21 20 20 20 22 23 22 20 19 19 19 19 15 13 14 13 14 13 11 12 12 11 11 11 10 10 10 10 10 11 10 9 9 9 8 8 9 10 9 10 10 9 7 7 7 7 7 6 6 5 4 4 5 6 6 8 9 7 5 5 5 4 3 3 4 6 8 8 9
14 14 17 20 19 19 18 18 18 19 21 22 24 24 24 23 20 20 22 22 23 23 21 20 19 20 19 18 15 15 15 13 13 13 12 12 13 12 10 10 9 8 9 9 8 9 7 7 9 9 9 9 9 9 9 10 11 10 8 7 7 7 7 7 6 7 6 4 5 6 7 8 8 7 6 5 4 4 3 3 4 5 7 8 8
15 16 19 22 21 21 20 20 20 19 22 24 24 24 24 23 22 21 22 23 24 23 21 20 21 21 19 17 15 15 15 13 12 12 11 11 12 11 9 8 8 7 8 8 8 8 7 7 8 9 9 9 9 9 10 11 11 10 9 8 8 6 6 6 6 8 7 6 5 4 5 5 6 8 8 5 4 4 4 4 4 4 6 8 9
19 19 22 24 24 24 22 22 21 22 24 27 26 25 23 22 22 21 21 22 22 21 21 21 21 20 19 17 15 15 15 13 12 12 12 12 10 9 8 8 8 8 8 8 8 8 8 8 8 9 9 8 9 8 9 10 10 10 10 10 9 7 5 6 7 8 8 7 5 3 4 3 4 8 8 5 5 5 4 5 6 5 5 7 9
21 21 23 24 24 24 24 23 23 24 26 28 28 25 22 21 22 21 19 19 19 19 20 21 19 19 19 16 15 15 15 14 13 12 12 12 9 8 9 8 8 8 8 8 8 9 8 8 7 8 9 8 8 8 8 9 9 9 9 9 9 8 7 5 5 6 7 8 6 3 3 2 6 9 8 6 6 5 5 5 6 6 6 6 8
19 19 21 23 23 24 25 26 27 27 26 25 24 24 22 21 20 20 18 18 18 19 19 19 18 18 16 14 15 15 13 13 12 11 11 11 10 9 10 10 8 8 9 8 9 9 8 8 7 7 8 8 7 7 8 8 8 8 8 9 8 7 7 7 6 6 6 7 7 5 3 3 6 9 7 8 8 6 6 6 7 8 7 7 7
21 21 22 24 24 24 26 26 27 26 23 22 22 23 24 22 19 18 18 17 16 18 19 18 17 17 14 13 14 14 13 12 11 10 10 10 10 10 9 10 9 9 9 9 8 8 8 8 8 7 7 7 7 7 8 8 8 8 8 9 9 8 8 7 6 6 6 6 6 6 5 4 4 5 6 8 9 9 9 7 8 6 6 7 7
24 23 24 26 26 25 24 24 23 23 23 24 24 23 22 21 21 19 18 15 14 17 18 16 15 15 14 13 13 13 13 12 10 11 10 8 9 10 9 9 9 10 9 8 8 8 9 8 8 7 7 7 7 7 7 7 8 8 8 9 10 10 9 8 6 6 7 7 7 6 6 6 5 4 4 7 10 11 10 9 8 5 5 5 5
24 21 22 24 25 23 21 18 14 13 17 18 16 18 17 16 17 16 15 14 13 15 15 14 15 15 15 14 14 13 13 12 11 11 10 9 9 11 11 10 10 11 10 9 9 8 8 8 7 7 8 7 7 6 7 7 8 8 8 9 10 10 10 10 9 8 8 8 7 6 7 8 8 6 6 8 9 10 9 9 8 6 6 6 6
20 18 18 17 16 15 14 13 12 19 13 8 6 10 15 13 10 10 13 14 14 15 15 16 17 15 15 16 15 15 14 14 13 12 12 11 11 11 11 10 10 10 11 11 10 8 8 8 7 7 8 7 7 7 6 7 7 7 8 9 9 9 9 10 10 9 8 7 7 7 7 7 7 7 7 7 7 9 11 10 9 8 9 9 8
14 14 14 13 12 10 9 10 11 14 8 6 6 9 17 17 12 10 14 15 17 17 17 19 18 16 17 17 17 16 15 15 14 13 13 13 12 12 11 11 10 10 10 10 10 9 9 9 8 8 7 7 7 7 6 6 6 6 6 7 8 9 9 8 8 8 8 8 8 7 6 6 6 5 7 7 6 10 12 11 10 11 11 11 11
14 12 13 14 13 11 10 9 11 11 9 15 13 16 25 25 18 16 16 16 18 19 19 21 19 18 18 18 18 18 16 15 13 13 14 13 13 12 12 11 11 11 10 9 10 11 11 10 8 7 7 7 7 6 7 7 7 6 6 6 7 8 8 8 8 7 9 9 9 7 6 6 6 5 8 8 7 8 10 10 11 12 12 13 12
15 13 14 16 14 13 11 10 10 8 11 18 17 17 22 26 24 21 19 18 18 20 22 23 21 19 20 20 20 19 18 16 14 14 15 13 13 13 12 11 11 11 11 10 12 12 10 10 8 7 7 7 7 6 7 7 7 6 5 6 6 6 7 8 7 7 9 10 9 8 7 7 6 6 9 9 7 8 9 11 12 12 13 13 12
13 12 12 14 14 13 10 10 9 6 10 17 18 18 19 22 24 22 21 20 19 20 24 25 23 22 22 22 22 21 19 17 15 16 16 14 13 13 12 11 10 11 11 11 13 12 10 11 10 9 9 8 7 6 6 7 7 6 6 6 6 6 6 7 6 7 9 10 10 9 8 8 8 7 8 9 8 8 9 11 13 13 13 13 12
10 11 11 12 14 13 10 10 10 9 12 16 17 19 19 18 20 20 19 20 19 21 25 26 25 24 25 25 25 23 21 19 17 17 18 16 14 13 12 10 11 11 11 12 12 11 11 10 8 9 9 8 9 7 5 6 7 6 6 6 6 6 6 7 6 7 8 9 11 11 9 8 8 7 9 9 9 10 10 11 12 11 12 13 12
9 9 10 11 14 13 9 9 11 13 15 16 16 18 17 18 20 19 19 20 21 22 26 27 26 26 27 26 26 26 23 20 18 18 19 17 14 13 12 11 11 11 12 13 12 10 9 8 7 8 10 10 9 7 5 5 6 6 6 6 6 6 6 7 6 6 8 8 10 12 10 9 8 7 10 10 9 10 11 11 10 9 11 12 11
8 8 9 9 11 10 9 9 11 12 13 14 15 16 16 18 19 18 19 22 23 23 27 29 27 28 28 28 28 27 24 21 18 17 19 17 14 14 13 12 12 12 12 13 12 10 9 9 7 8 10 11 9 7 6 5 5 5 5 5 6 6 6 7 7 6 7 8 10 10 9 10 10 9 10 10 10 11 11 10 9 8 9 9 10
7 8 8 7 6 6 9 12 11 12 12 12 13 14 15 16 17 17 18 23 24 23 27 29 28 29 30 30 30 28 25 23 19 17 18 17 15 14 14 13 13 12 13 13 12 10 10 9 8 7 10 11 10 8 8 7 6 6 6 5 6 6 5 6 6 7 7 8 11 11 8 10 12 10 11 12 12 12 9 7 6 5 7 7 8
7 8 7 6 6 6 8 11 12 12 12 13 12 13 14 15 16 16 17 21 23 23 25 27 28 30 31 31 32 29 26 24 21 19 18 17 15 15 14 14 13 12 13 13 12 11 11 10 8 7 8 10 10 10 9 8 8 7 7 6 6 5 4 4 6 7 8 9 11 12 10 12 14 12 12 14 13 10 8 7 6 6 6 7 7
10 8 6 6 5 6 8 9 10 10 11 11 11 12 14 14 15 16 17 20 23 23 25 27 29 31 32 33 33 29 27 25 22 20 19 17 16 15 15 14 13 12 12 13 12 11 11 10 8 7 8 10 11 10 10 10 9 8 7 7 7 6 5 5 5 6 8 9 10 10 10 12 14 14 13 12 11 9 8 8 7 7 7 6 6
12 10 9 8 5 5 7 7 7 8 8 9 10 11 14 14 15 17 18 20 22 23 24 27 29 31 33 35 32 28 28 25 23 21 20 18 16 16 16 15 12 12 12 12 12 11 11 10 9 8 8 10 11 11 11 10 10 10 9 8 7 7 6 6 6 7 8 8 10 11 12 13 13 13 12 10 10 9 8 8 8 7 7 5 3
12 11 10 8 6 3 4 5 5 6 7 8 9 11 14 14 15 16 18 21 22 23 24 26 29 31 33 34 31 29 29 26 22 22 20 18 17 16 16 15 13 13 12 12 11 12 11 10 10 9 9 10 11 11 11 11 11 11 10 9 9 8 8 7 8 8 9 9 11 12 13 13 12 11 10 9 8 8 7 7 7 6 6 6 3
12 11 10 9 8 7 4 3 4 5 6 8 10 11 13 14 15 15 17 21 23 24 25 25 28 31 32 32 30 30 30 26 23 22 21 19 17 16 15 14 13 12 12 12 11 11 11 11 10 9 9 11 11 11 11 11 11 10 10 10 10 9 9 8 8 9 10 10 11 12 12 12 12 10 9 9 8 7 6 6 6 5 6 6 4
11 11 10 10 10 10 8 4 3 2 4 6 9 12 14 13 12 14 17 20 23 24 24 24 28 32 32 31 32 31 29 27 24 22 22 20 17 16 14 14 14 13 12 12 12 12 11 11 10 10 10 11 11 11 11 10 10 10 9 10 10 10 10 9 8 9 10 10 10 11 10 11 11 10 9 8 7 7 5 5 6 6 5 6 5
10 10 10 9 9 10 8 6 4 1 2 4 7 11 14 14 12 14 18 21 22 23 22 25 31 34 31 29 30 28 25 25 23 22 22 19 17 16 14 13 13 13 12 12 12 12 11 11 11 10 10 10 11 11 11 10 10 9 9 9 10 11 10 9 9 9 9 10 9 10 10 9 9 8 8 7 7 7 5 4 5 6 6 7 6
10 10 10 9 9 10 8 6 3 2 1 3 6 7 9 13 12 12 16 19 20 20 21 26 32 34 30 27 28 27 24 23 22 21 21 19 18 18 15 13 12 12 12 11 11 12 12 11 10 10 10 10 11 11 10 10 10 10 10 10 10 11 10 10 10 9 9 9 9 9 9 8 7 7 7 7 6 6 5 3 5 6 4 4 5
11 11 11 10 9 8 6 4 1 1 3 5 6 6 2 10 9 8 12 15 16 16 20 28 32 31 28 27 27 27 25 23 22 20 19 19 18 17 15 12 12 12 11 10 11 11 11 10 10 10 10 10 10 11 11 11 10 10 10 10 10 10 10 10 9 8 9 9 8 8 8 7 8 9 9 8 7 6 5 3 4 5 3 3 4
13 12 11 10 9 8 7 5 3 2 4 7 9 7 2 4 6 8 12 14 14 14 19 26 31 31 28 25 26 27 26 24 22 20 19 19 18 17 15 13 12 12 11 10 10 11 10 10 10 10 10 11 13 14 15 15 13 12 10 10 10 9 9 9 9 8 8 8 7 8 8 10 11 12 11 9 8 8 8 6 5 5 4 4 4
12 11 11 10 8 7 7 6 5 4 4 6 8 6 2 2 4 8 11 11 13 17 20 22 24 26 25 24 26 27 26 24 21 19 20 20 18 17 16 14 12 11 10 9 9 10 9 8 9 10 12 14 16 17 17 17 16 14 12 10 9 9 9 8 8 7 7 7 7 7 10 12 12 11 10 9 9 9 10 10 9 7 7 6 5
11 11 11 10 8 7 6 6 6 6 6 5 5 3 1 1 3 6 9 9 14 20 22 19 18 19 20 20 23 25 25 23 21 19 19 19 18 17 16 15 14 12 11 10 9 10 10 9 11 13 15 17 17 17 19 19 18 16 14 12 10 9 8 8 7 7 7 7 7 7 8 10 10 10 10 10 10 10 11 12 12 11 10 10 9
11 11 11 10 9 8 7 7 7 6 6 6 4 3 5 7 8 10 11 13 17 21 21 18 18 20 19 19 20 23 24 22 20 20 20 20 20 19 18 18 17 15 13 11 10 13 15 16 16 17 16 17 17 17 19 20 19 18 16 13 9 7 7 7 7 7 7 6 7 7 7 8 9 11 10 10 11 12 12 13 14 14 13 12 12
9 10 10 10 9 9 9 8 8 8 8 9 9 7 9 11 12 12 13 16 18 20 20 19 20 21 21 20 20 22 25 23 22 22 20 20 22 22 20 18 16 14 13 11 10 13 16 17 16 14 13 14 15 16 17 19 19 18 16 13 9 5 6 7 6 7 7 7 7 8 8 8 9 11 11 10 10 12 14 15 15 15 15 14 14
9 8 9 9 9 9 10 10 11 13 13 13 14 13 12 13 14 13 14 17 20 21 22 23 23 22 21 20 20 21 23 24 24 23 20 20 21 20 19 17 14 13 13 12 11 11 13 13 12 10 9 10 10 12 14 15 15 14 13 12 9 7 6 6 6 7 8 8 7 8 9 10 10 12 13 13 12 13 14 16 17 17 16 16 16
10 9 9 9 9 10 12 13 14 15 15 14 14 14 13 14 16 15 14 16 19 22 23 23 23 23 22 20 19 19 20 21 21 20 19 19 19 17 14 12 11 12 12 12 11 11 11 9 8 7 7 8 9 9 10 10 10 11 10 10 10 11 9 8 7 8 9 9 10 10 11 12 14 14 14 14 16 17 17 17 17 17 17 17 18
11 11 10 10 11 11 11 12 13 13 14 14 15 14 14 15 17 17 15 15 15 17 18 18 19 21 21 19 17 17 18 19 19 18 16 15 17 16 11 9 10 12 13 13 12 12 12 10 9 9 9 9 9 9 8 8 8 8 8 10 12 12 10 8 8 9 9 9 10 11 11 12 16 19 19 18 18 19 20 19 19 19 19 19 18
14 16 16 15 15 15 13 12 11 11 13 15 16 16 16 17 18 19 18 16 16 17 16 16 16 16 17 17 16 16 17 16 15 16 16 16 17 16 14 13 12 12 12 13 13 13 13 13 12 12 11 10 11 11 12 12 12 12 12 14 15 13 10 9 9 9 10 11 11 14 15 15 17 19 21 21 21 21 23 23 23 23 24 23 21
18 20 21 20 20 20 18 17 14 13 13 15 16 17 17 19 20 20 19 19 18 18 18 16 16 15 15 15 15 15 16 15 14 15 15 15 14 14 13 13 12 11 11 13 14 14 14 14 14 13 11 11 13 14 16 18 19 18 18 18 16 11 10 11 10 9 11 13 14 17 19 19 19 20 21 22 22 22 23 22 22 23 23 22 20
18 19 20 20 20 20 21 21 20 18 16 16 18 19 19 21 23 22 22 22 20 20 20 19 18 17 16 16 15 15 15 16 16 15 14 13 12 11 11 11 10 10 11 13 15 15 15 15 14 13 12 13 15 16 17 18 20 20 19 18 16 12 12 13 13 11 11 12 12 15 18 19 19 19 19 19 19 19 19 19 19 19 19 19 18
17 16 17 17 18 18 19 21 22 20 18 17 19 20 22 23 24 24 23 23 22 20 20 19 19 19 18 17 16 16 15 15 15 14 13 12 11 10 10 9 9 9 10 11 12 12 12 12 11 10 10 11 12 12 13 14 16 17 17 17 17 17 15 15 15 15 16 15 12 13 17 19 18 17 17 17 17 17 19 20 20 21 21 21 21
17 16 16 16 17 17 18 19 20 20 19 18 18 20 22 21 22 24 24 21 20 19 18 18 18 18 17 17 16 16 16 15 14 13 12 11 10 9 9 9 9 8 8 8 8 8 7 7 7 8 8 8 8 9 11 12 14 15 16 16 17 17 14 14 16 17 17 17 16 17 19 20 19 19 18 19 20 21 23 24 25 25 26 26 27
14 15 15 15 16 16 17 18 17 17 18 18 18 19 21 20 20 22 21 18 16 16 16 16 16 16 16 15 14 14 14 15 14 13 12 11 10 9 9 9 8 8 7 6 6 6 6 6 6 7 7 7 7 8 10 11 12 12 13 15 17 16 13 14 18 19 19 20 19 21 24 25 24 24 25 26 27 27 28 29 29 29 30 30 30
14 13 12 12 13 14 15 17 16 15 15 16 16 17 18 18 19 19 18 16 15 14 14 14 14 14 14 13 12 12 11 11 11 11 10 9 9 8 7 7 6 4 3 4 4 4 5 5 6 7 8 9 10 11 11 13 15 16 16 18 20 19 17 17 19 21 22 21 19 20 26 29 28 27 28 29 30 31 32 32 32 32 32 32 33
15 14 13 12 12 13 14 15 15 14 14 14 14 15 16 17 17 15 14 13 13 12 11 12 12 11 11 10 10 9 9 9 8 8 7 7 6 5 4 4 4 3 2 1 1 1 2 2 2 4 7 10 11 12 13 14 16 18 19 20 21 21 20 20 20 19 20 20 20 21 26 27 26 26 26 27 27 28 29 30 30 30 30 31 32
15 15 14 13 12 13 13 14 15 15 15 15 14 15 16 17 17 15 14 13 12 11 11 11 11 10 10 10 9 7 6 7 6 6 6 6 5 5 3 3 3 3 3 2 1 1 1 0 0 0 2 6 9 11 11 13 14 15 16 16 16 17 18 18 18 18 19 20 21 22 23 23 23 24 24 24 24 24 25 25 25 25 25 26 27
14 14 13 12 11 12 13 14 14 15 15 15 14 14 16 16 15 14 14 13 13 12 12 12 12 11 10 9 9 8 7 7 6 6 6 6 6 6 5 5 4 3 3 3 2 2 2 1 1 1 1 2 5 5 6 10 12 12 12 14 14 14 15 14 14 16 18 19 20 20 20 21 21 22 22 22 23 22 22 23 22 21 21 21 22
12 13 12 11 11 11 11 12 13 14 15 14 14 15 15 15 14 13 13 12 12 12 13 13 12 12 11 10 10 10 9 8 8 8 6 6 7 6 5 5 5 4 4 4 3 3 3 2 2 2 1 1 2 1 5 9 12 11 10 12 12 12 13 13 12 14 18 20 21 21 21 21 20 20 20 19 19 18 18 18 17 16 16 16 17
9 10 10 10 11 11 12 13 13 14 13 13 14 15 15 14 13 13 12 12 12 11 12 12 12 11 12 11 10 10 10 9 8 8 7 6 6 5 4 3 3 3 4 4 4 3 4 4 3 1 1 3 1 6 10 11 11 9 9 10 10 11 12 12 13 15 16 18 19 19 19 18 16 16 15 15 14 14 14 13 12 13 14 15 17
6 7 7 8 9 10 10 12 12 12 11 11 12 13 13 13 12 12 12 12 12 12 11 11 11 10 11 11 10 10 10 10 9 8 8 7 7 5 5 4 4 3 2 2 2 2 3 4 3 3 4 4 4 9 10 9 9 9 9 10 10 10 10 10 11 12 12 13 13 13 12 11 11 11 11 10 10 10 10 10 10 12 13 14 15
4 5 6 6 7 8 8 9 9 9 9 10 10 10 11 11 10 10 10 10 10 10 10 10 9 9 10 10 10 10 10 10 9 8 8 9 9 8 7 7 6 5 4 3 2 2 1 1 2 3 4 4 6 7 7 7 8 9 9 9 9 9 9 9 10 11 11 12 11 11 10 9 9 9 9 9 9 9 10 11 11 12 12 13 14
4 5 5 5 5 6 6 6 7 7 8 8 8 9 10 10 10 10 10 10 9 8 8 9 9 9 11 10 8 8 9 8 7 7 7 8 9 9 9 9 8 7 6 6 5 4 4 3 1 0 1 2 3 4 5 6 6 7 7 8 9 9 9 10 10 10 11 10 10 10 9 8 8 8 8 9 9 10 11 11 12 12 12 12 14
Wind_Direction
204 194 191 196 191 189 188 190 192 192 197 195 195 203 207 208 207 203 200 203 210 207 205 206 207 208 210 212 213 209 209 209 207 202 200 204 196 193 200 192 198 203 195 200 197 190 197 204 212 204 192 205 197 186 193 195 194 194 194 196 199 205 201 197 200 188 175 162 163 168 138 125 132 137 149 158 154 171 202 198 167 132 129 137 142
203 191 191 202 195 191 186 184 192 192 194 200 206 209 208 208 204 200 200 205 212 210 208 208 206 210 211 209 208 203 204 207 206 201 204 208 195 195 203 195 200 206 199 203 201 198 201 198 199 198 193 198 196 191 191 191 193 191 188 192 194 196 199 202 192 177 179 170 154 148 137 127 129 138 144 142 152 173 201 191 152 137 128 126 135
202 197 198 205 200 196 193 189 194 196 198 206 212 214 213 208 203 205 205 208 213 209 211 215 211 213 211 205 203 201 203 206 208 206 210 213 201 200 206 199 203 202 194 200 199 196 197 195 195 195 195 197 198 193 187 191 195 189 184 189 191 193 201 204 191 180 180 178 166 155 144 133 132 141 140 138 150 163 183 175 137 134 138 135 135
202 202 204 207 203 199 199 197 197 197 202 209 213 214 214 210 205 205 201 203 209 206 210 216 214 212 208 204 202 201 202 204 208 208 212 217 209 203 203 199 198 193 190 191 193 195 193 197 199 197 199 198 199 191 187 197 199 189 186 186 185 191 201 201 192 186 186 184 180 172 158 147 146 145 137 129 119 127 161 165 143 136 136 133 130
201 200 207 208 203 200 201 202 201 202 208 214 214 211 210 210 207 201 196 198 201 203 205 207 210 208 202 201 200 196 197 200 202 203 209 214 208 200 197 193 190 191 189 182 193 202 194 198 198 193 197 197 197 191 191 204 201 191 193 188 184 184 191 201 196 193 198 194 189 179 155 156 165 149 136 123 110 113 133 141 141 138 123 121 124
198 199 206 207 205 203 202 203 204 206 214 218 220 217 212 210 207 200 198 195 194 200 202 201 206 206 200 198 196 190 193 197 196 198 206 205 197 193 191 183 181 189 184 179 197 200 189 197 195 187 193 196 201 198 195 205 198 193 199 193 191 189 182 192 201 204 204 194 195 181 131 133 159 154 146 132 117 106 120 126 122 117 108 110 114
202 204 207 211 209 206 204 206 208 209 214 219 221 220 214 207 201 197 198 197 196 199 201 202 204 204 200 198 193 188 192 196 193 198 203 196 190 191 185 175 179 193 186 185 199 193 183 193 192 188 193 195 203 205 202 203 192 190 198 192 194 198 188 185 189 205 206 194 197 184 151 137 148 155 157 146 136 120 119 118 108 108 108 109 111
208 209 210 217 212 209 210 209 210 209 210 213 212 210 210 206 196 196 200 197 195 190 189 196 201 199 193 189 190 189 193 193 188 199 202 192 186 183 179 174 180 192 190 190 196 188 185 192 192 189 193 195 198 202 205 204 193 193 202 195 188 193 199 192 179 196 207 194 196 184 159 129 127 158 164 155 150 138 134 130 116 121 134 130 124
193 200 208 218 216 214 212 211 215 214 209 206 204 203 206 200 190 193 198 190 187 184 183 191 198 193 183 185 194 193 194 192 191 200 195 189 185 172 167 173 181 186 185 190 190 186 189 194 194 189 191 195 191 196 200 199 200 202 209 207 197 195 203 196 177 194 207 193 194 192 166 147 145 167 159 147 151 146 145 146 133 130 138 127 113
176 189 206 215 217 216 214 217 212 193 194 195 195 201 201 185 174 186 194 187 188 186 183 191 197 192 181 186 196 190 186 188 194 195 183 189 188 170 166 173 184 186 185 189 186 186 190 190 195 193 193 189 182 195 195 192 208 213 213 214 208 203 206 203 191 196 205 193 186 185 177 167 157 153 144 139 149 151 148 147 140 127 117 105 92
167 183 201 206 214 219 215 203 139 105 110 123 136 193 195 177 165 187 199 198 200 193 184 187 193 194 187 186 186 180 183 187 187 184 181 190 186 172 171 174 180 186 190 191 181 183 187 184 194 197 196 189 180 193 191 184 202 213 216 214 207 205 207 209 201 194 200 195 184 181 178 175 164 156 151 142 147 147 141 142 139 128 121 113 103
177 190 193 195 201 200 192 180 131 96 106 167 174 168 164 162 168 194 204 204 206 200 189 186 189 192 188 184 180 177 187 189 181 181 185 188 182 174 172 174 177 183 191 191 179 181 188 188 196 196 198 198 188 189 182 177 190 202 211 208 205 204 200 202 196 187 192 194 193 181 162 166 169 158 151 143 137 136 135 139 138 132 127 121 114
205 204 179 183 182 170 163 144 111 97 146 182 178 150 151 160 173 195 201 199 205 202 193 188 188 189 185 182 179 179 188 189 182 186 187 185 183 178 176 177 177 180 185 187 181 183 188 191 192 191 197 200 192 187 179 178 188 194 199 198 202 203 195 195 194 188 186 189 190 173 153 160 156 149 156 146 133 134 136 138 138 135 130 127 128
200 200 175 173 165 162 173 155 126 120 157 171 168 157 162 167 176 192 193 191 200 200 191 187 186 187 182 179 179 180 186 184 181 189 187 185 187 183 182 181 179 182 180 182 185 181 182 188 187 190 200 201 196 195 188 185 185 183 185 191 194 192 190 191 193 188 181 182 183 165 156 154 136 141 153 141 135 143 143 143 139 135 132 129 133
178 179 168 168 161 163 177 165 161 185 175 168 170 177 179 171 173 187 191 189 194 193 190 187 185 183 178 178 179 180 183 175 178 193 188 185 190 187 185 182 180 181 175 180 183 176 181 188 187 197 206 208 207 200 195 191 184 180 183 186 185 182 184 186 191 188 178 178 174 160 156 149 139 149 148 135 140 144 143 148 143 139 139 133 136
167 164 166 174 167 165 171 162 167 179 170 169 176 181 182 174 173 185 190 188 189 189 188 186 185 181 177 179 178 177 180 174 178 194 190 184 189 186 184 181 178 176 173 180 180 175 183 181 181 198 198 204 207 191 188 196 186 181 182 180 180 178 176 178 188 186 175 178 172 164 164 149 144 162 154 141 145 143 142 147 142 142 142 138 143
167 165 166 172 166 160 158 158 169 174 168 172 178 179 180 174 173 183 191 190 188 189 185 183 183 180 177 181 176 171 178 178 181 194 191 184 184 182 182 179 173 172 175 180 177 176 175 160 173 195 185 191 195 173 173 193 181 176 176 176 174 169 169 171 178 179 173 175 170 165 163 150 150 165 153 145 147 143 140 141 141 144 144 143 152
138 138 139 152 158 159 164 168 176 174 169 173 177 178 178 176 177 184 191 190 187 185 183 181 181 178 178 180 173 168 176 178 180 193 191 183 178 178 179 174 171 174 179 179 176 174 166 161 180 189 179 184 180 160 164 173 166 161 157 164 162 158 169 171 167 171 169 166 164 159 152 152 159 158 148 145 142 136 136 144 149 151 152 155 157
103 106 109 119 129 147 168 174 174 171 170 172 173 174 176 180 182 184 189 189 182 179 181 182 179 178 179 180 173 169 175 177 177 186 186 179 177 177 175 174 175 178 180 176 171 170 167 170 182 181 178 181 172 162 163 159 158 152 143 150 151 151 169 172 168 170 169 166 163 158 153 158 163 158 153 148 136 131 136 144 142 135 143 149 145
74 83 81 84 102 125 148 157 160 164 170 172 173 178 183 185 185 184 186 186 181 177 180 182 179 178 179 179 175 173 175 176 176 182 182 176 177 176 173 177 179 178 178 173 169 170 169 171 176 174 174 174 170 167 162 157 160 155 149 154 149 145 154 161 168 170 169 169 162 159 165 165 161 157 152 143 134 133 138 137 131 124 132 138 137
59 62 50 56 90 119 130 147 163 167 170 176 178 182 187 188 185 184 183 182 180 179 181 181 179 180 179 176 176 175 174 174 175 181 181 176 176 178 178 178 178 177 176 172 170 170 169 169 170 169 169 168 168 167 161 159 161 156 156 157 150 150 147 143 155 157 158 162 155 153 162 159 153 150 145 141 138 138 137 134 133 135 141 148 148
47 42 35 44 63 109 134 151 173 172 168 181 189 190 196 195 185 181 181 179 179 180 182 179 178 180 178 174 175 175 175 176 177 181 182 177 177 183 183 178 177 180 176 172 173 172 170 170 168 168 169 169 169 167 164 163 163 161 159 157 155 158 152 142 144 144 144 149 146 145 147 146 145 144 141 142 144 143 143 141 137 138 147 159 162
36 32 32 38 40 63 143 150 163 176 179 191 203 202 201 199 190 185 181 177 179 181 180 178 178 179 177 174 174 173 176 178 178 181 182 178 180 186 183 177 178 183 178 174 176 173 170 171 170 169 170 170 170 170 168 166 167 165 161 160 162 161 155 146 144 145 142 141 142 142 143 143 143 142 141 146 153 157 158 152 147 148 154 165 174
32 28 29 33 39 40 41 115 151 181 191 197 211 213 207 203 195 190 184 179 179 180 178 178 179 177 175 175 173 173 177 178 177 180 180 177 180 183 179 176 179 181 178 177 178 174 172 172 170 169 168 169 172 172 171 171 171 169 169 170 168 164 160 151 146 150 148 143 143 143 144 146 144 142 146 153 160 167 167 161 163 163 164 176 188
37 33 35 37 46 49 49 75 115 205 217 210 210 204 201 200 190 184 184 180 180 180 176 175 178 176 174 175 174 174 176 174 173 179 179 175 176 176 174 177 179 179 178 178 177 173 173 173 170 170 169 169 173 174 173 173 173 171 172 174 171 167 164 157 152 152 151 149 148 147 148 149 148 146 150 156 163 170 169 167 175 178 176 183 190
44 41 38 38 40 43 57 84 93 126 216 235 232 217 206 196 181 180 183 179 180 181 173 171 177 178 177 178 177 176 174 170 170 178 178 171 170 170 169 174 178 178 179 179 176 173 173 173 172 170 169 170 173 174 174 174 174 171 168 168 168 167 165 161 156 150 151 154 152 152 154 154 154 153 157 161 165 173 175 175 194 200 188 183 190
41 35 29 30 33 34 49 71 74 89 156 258 275 275 231 195 174 177 183 179 177 175 171 175 181 181 178 178 177 176 175 172 171 175 175 170 171 170 165 165 170 174 177 177 175 174 172 172 172 170 171 171 170 172 174 173 172 168 164 163 165 165 164 162 159 155 157 157 155 159 160 158 162 167 170 172 170 178 185 185 201 207 190 173 186
35 30 24 22 24 28 42 48 7 272 284 289 317 347 219 182 174 180 181 176 170 158 160 174 181 181 180 179 178 177 175 173 173 173 173 174 177 173 163 161 164 168 173 175 177 176 169 168 171 169 169 168 165 170 173 171 171 170 165 164 163 163 164 162 161 162 161 158 161 165 162 166 178 180 177 176 175 178 181 189 206 209 208 207 204
34 30 25 20 18 17 28 34 10 318 306 315 338 3 49 186 200 194 178 168 158 148 159 174 180 182 181 180 180 178 174 173 174 172 172 174 176 171 161 159 162 161 164 171 176 174 167 166 168 165 163 166 170 176 175 170 170 169 166 166 165 166 169 166 163 165 164 160 163 167 174 188 195 194 191 192 191 183 176 178 190 199 211 225 230
36 30 25 22 17 6 9 24 25 16 8 349 350 2 358 268 235 197 182 164 145 148 164 176 178 178 177 177 178 177 173 171 169 167 169 170 171 169 161 156 157 156 158 165 168 167 166 164 161 162 171 178 181 182 177 172 171 168 167 173 173 171 174 175 175 175 172 172 172 181 199 208 210 210 214 220 218 207 197 191 191 201 208 211 223
35 30 27 24 22 11 6 18 31 39 43 26 13 33 103 210 189 179 181 162 138 146 162 171 166 162 163 168 172 173 172 169 162 161 165 167 168 166 158 155 156 157 155 155 158 162 161 163 172 182 187 186 185 185 180 175 173 170 168 170 175 180 179 179 185 186 187 191 192 203 225 233 232 230 232 235 232 224 218 215 217 225 226 220 219
35 32 30 26 27 32 32 30 37 52 65 63 65 103 127 134 138 146 155 151 143 148 158 163 160 156 154 157 163 170 173 170 162 161 164 167 167 163 161 163 167 167 163 157 164 171 168 168 181 193 195 190 189 191 188 181 176 175 172 163 161 183 193 191 197 199 201 209 208 211 229 240 242 239 236 235 236 234 232 232 236 241 242 239 236
39 36 35 32 31 41 50 54 61 71 81 81 81 95 116 128 135 140 144 145 146 149 150 150 157 162 162 162 166 171 175 174 171 168 167 166 165 165 169 174 175 175 174 170 173 178 177 179 185 193 197 197 195 193 192 189 186 186 185 174 164 180 199 202 211 214 217 225 227 228 230 233 242 245 239 236 242 246 247 246 246 246 246 247 247
45 44 44 42 42 52 65 74 79 82 87 88 84 85 98 116 132 142 144 143 144 146 144 142 146 153 158 164 168 170 174 179 182 182 177 170 168 167 168 170 174 177 176 172 170 173 181 191 198 200 203 204 200 195 195 198 199 199 204 206 204 207 211 215 223 228 233 236 237 241 241 242 247 246 237 236 241 246 252 254 253 254 257 257 257
51 54 58 57 61 74 84 88 89 87 86 87 87 92 99 108 120 130 135 138 140 141 142 140 139 143 149 158 167 170 175 181 182 183 180 174 174 175 169 166 178 184 178 175 175 174 177 186 195 199 200 198 196 195 197 205 210 212 221 232 236 234 234 238 243 242 242 244 245 246 250 255 257 254 251 252 249 245 248 254 256 258 261 260 258
56 63 69 71 78 87 94 98 101 99 97 95 94 98 104 107 114 120 123 129 131 130 133 138 141 145 148 151 158 164 172 177 177 179 180 178 183 194 206 216 220 218 210 204 201 195 190 193 200 203 205 210 210 204 205 214 219 223 241 255 252 248 248 249 251 249 247 250 254 252 253 256 257 259 264 266 260 257 261 266 267 266 268 269 266
73 80 83 86 92 95 96 98 102 107 109 108 105 104 107 109 111 115 118 121 118 113 117 129 138 142 143 143 148 156 164 171 175 177 179 182 190 202 215 223 225 223 218 216 214 210 207 211 217 218 219 229 233 227 226 227 221 227 253 265 257 251 253 251 248 249 249 250 251 250 251 255 258 262 266 268 268 270 272 272 274 276 278 280 278
86 90 91 92 95 97 96 94 94 98 104 109 111 112 112 110 107 108 111 112 111 107 108 116 123 125 125 127 133 142 148 152 156 158 161 168 177 185 191 196 199 200 203 209 211 213 216 219 223 224 224 232 242 243 239 234 230 234 249 256 251 246 246 245 244 250 254 256 258 258 259 264 269 270 271 272 273 274 272 271 275 280 281 281 281
89 90 91 91 93 97 99 98 94 93 97 105 110 110 108 106 104 104 104 103 103 105 107 110 114 115 115 115 119 127 132 135 137 139 141 145 155 166 177 184 190 196 204 207 204 205 209 209 210 214 214 221 234 238 234 230 231 235 241 244 242 239 237 238 241 246 252 258 266 269 267 269 274 274 272 272 273 271 270 271 274 276 276 278 278
88 89 90 91 93 94 96 98 98 97 98 101 104 104 102 103 104 103 100 99 99 101 103 106 109 111 112 113 116 123 126 126 128 130 132 136 145 157 166 173 181 188 196 199 197 197 200 199 202 210 212 215 223 225 222 223 227 233 239 244 248 246 243 247 252 255 258 261 268 275 272 270 270 268 267 268 270 271 272 272 272 272 272 273 274
84 86 88 91 93 89 86 88 95 100 102 101 101 102 101 102 104 102 99 100 101 102 103 103 105 107 109 111 115 120 123 124 126 130 132 136 143 151 153 158 168 175 180 190 195 199 206 209 213 221 226 230 233 233 233 234 237 242 245 250 255 255 255 262 268 268 265 262 264 271 273 272 272 271 271 270 268 268 268 268 270 271 270 272 273
80 80 81 82 85 84 81 81 85 93 99 100 101 100 99 100 100 97 97 100 104 106 107 107 109 111 113 114 118 121 124 126 129 134 136 135 137 140 140 145 156 164 168 178 190 200 211 219 225 229 232 235 237 240 243 243 246 252 256 259 264 265 261 259 262 265 265 264 267 271 271 270 271 271 272 271 268 267 268 268 269 269 269 269 269
81 78 79 80 81 81 79 79 80 83 90 96 98 98 98 97 94 91 94 100 101 103 109 111 113 115 116 119 121 123 126 129 131 136 139 139 140 141 142 150 154 152 164 189 203 215 227 238 248 254 256 253 249 248 251 254 255 258 261 264 268 270 269 264 262 265 269 271 271 269 268 271 272 272 271 272 271 271 272 273 272 271 271 270 270
77 75 74 76 81 83 83 82 81 82 85 88 91 96 96 94 91 88 89 94 96 98 103 104 106 110 111 113 118 123 129 131 132 136 139 141 146 146 149 157 146 122 113 149 210 221 242 263 281 280 279 277 272 265 262 262 262 264 267 269 272 275 278 278 277 277 276 274 270 268 272 277 280 279 277 276 274 273 273 274 274 274 273 273 272
72 71 69 67 69 73 78 78 74 74 77 77 79 85 87 87 87 85 83 85 89 95 98 99 102 105 106 105 104 106 114 119 120 125 127 126 124 118 107 99 101 113 122 111 100 118 140 179 170 36 301 291 291 292 287 278 274 275 277 279 281 282 282 283 285 283 281 278 278 279 283 285 285 284 284 283 282 281 280 280 280 280 280 279 278
69 70 71 68 65 65 70 74 74 72 72 72 72 76 77 76 75 73 72 72 72 76 82 86 90 93 96 102 104 101 99 101 102 101 104 111 107 98 96 95 85 78 82 77 67 74 75 63 72 97 107 299 317 331 312 289 287 290 292 292 294 294 293 294 293 288 286 286 288 290 292 292 292 292 292 291 290 289 290 290 291 290 290 290 287
68 71 74 74 73 71 71 76 80 80 79 79 77 74 72 72 71 68 66 65 62 60 63 65 70 75 78 82 89 93 94 97 101 99 100 110 108 102 111 130 132 128 119 97 81 87 104 104 78 65 77 33 32 171 233 276 295 303 302 301 304 305 305 307 305 299 298 301 304 304 304 303 303 303 304 305 306 308 309 311 309 307 310 312 305
65 68 71 74 78 80 81 81 79 76 78 79 77 72 66 63 64 67 68 68 67 64 61 60 61 66 70 72 75 81 83 82 83 84 87 95 99 96 99 114 131 145 155 151 139 155 185 168 135 118 134 108 152 243 256 283 303 308 307 310 312 310 308 307 304 300 301 306 307 307 309 313 318 319 318 317 319 319 319 319 312 303 305 306 300
65 61 61 65 68 72 78 80 75 70 68 65 62 61 57 51 50 53 55 56 56 53 53 57 58 61 64 64 68 75 78 76 74 73 75 80 81 79 76 73 76 88 112 165 174 205 225 198 181 219 206 181 226 262 278 299 307 306 310 313 312 312 314 314 314 314 317 318 318 321 328 335 335 329 320 314 313 309 305 301 294 290 291 289 286
81 75 70 65 60 57 61 64 65 65 66 63 57 55 55 51 48 44 41 43 45 42 41 43 49 61 63 55 55 63 65 63 65 64 64 70 73 75 76 72 70 74 74 78 91 84 81 179 221 251 241 233 252 271 288 299 302 308 316 319 320 326 328 330 333 335 336 339 345 353 357 347 331 325 323 317 315 312 307 304 301 298 294 290 287
90 88 85 79 73 69 63 60 60 59 59 60 58 53 50 48 44 40 40 42 44 45 42 35 38 61 71 60 51 57 58 54 57 57 53 49 47 49 59 66 69 72 74 74 77 80 79 79 73 301 281 279 286 297 303 305 311 320 323 325 328 328 326 329 332 330 335 350 1 356 343 330 323 323 323 317 315 315 310 308 307 304 300 298 294